Wind_Speed
13 12 12 12 12 13 13 13 14 14 14 14 14 14 14 14 14 14 15 15 15 15 15 16 16 16 16 16 17 17 17 17 17 17 17 18 18 18 18 18 19 19 20
12 12 12 13 13 14 14 14 14 14 14 14 15 15 15 15 15 15 16 16 17 17 17 17 17 17 17 17 18 18 18 19 19 19 19 20 20 20 20 21 21 21 22
14 14 14 14 14 14 14 15 15 15 15 15 16 16 16 16 17 17 17 18 18 18 18 18 18 18 18 19 19 19 20 20 20 20 20 21 22 22 23 23 23 23 24
14 14 15 14 14 15 15 16 16 16 16 16 17 17 17 18 18 18 18 19 19 19 18 18 18 19 19 19 20 20 21 22 22 22 23 23 23 24 24 24 24 24 25
15 15 15 15 15 15 16 16 17 17 17 17 18 18 18 19 19 19 20 20 19 19 19 19 19 20 21 21 21 22 23 23 24 24 24 25 25 25 25 26 26 26 26
16 16 16 16 16 16 16 17 17 17 18 18 18 19 19 20 20 20 21 21 21 21 21 21 22 23 23 23 24 24 25 25 25 26 27 27 27 26 27 27 28 28 28
16 17 17 17 17 17 17 17 17 18 18 19 19 20 20 20 21 21 22 22 22 22 23 23 24 24 24 25 26 26 27 27 28 28 28 28 29 29 29 29 30 30 30
16 16 17 17 18 18 18 18 18 18 18 19 19 19 20 21 22 22 23 23 23 23 24 24 24 25 25 26 26 27 28 29 29 29 30 30 31 32 32 32 33 33 33
17 16 16 17 18 18 19 18 18 19 19 19 20 20 21 21 22 23 24 24 25 25 25 26 26 26 27 27 28 28 29 30 31 31 31 32 33 33 34 35 36 36 36
17 17 17 17 18 19 19 19 19 19 20 21 21 21 22 22 23 24 25 26 26 26 26 26 27 28 29 29 29 30 31 31 32 32 33 33 34 35 36 37 38 39 39
17 17 18 18 18 19 19 19 19 20 21 21 22 22 23 24 24 25 25 26 26 27 27 28 28 29 30 31 32 32 32 33 33 33 34 35 36 37 37 38 39 40 40
19 19 19 19 20 20 20 21 21 21 22 23 23 24 25 25 26 26 27 28 28 29 29 30 30 32 32 33 33 33 33 33 34 35 36 36 37 37 38 39 40 40 41
20 20 20 20 21 21 22 22 22 23 23 24 24 25 25 26 26 27 28 29 30 31 31 32 32 33 33 33 33 34 34 35 35 36 37 37 38 38 39 40 40 41 42
21 21 21 21 22 22 23 23 24 24 25 25 25 26 26 27 28 29 30 31 32 32 32 33 33 34 34 34 35 35 36 37 38 38 38 38 39 40 41 41 42 42 43
22 23 23 23 23 24 25 25 25 25 26 26 27 28 28 29 30 31 32 33 34 34 35 35 36 35 35 36 37 37 37 38 38 39 39 40 41 42 42 43 43 44 44
24 24 24 24 24 25 27 27 28 28 28 29 30 30 30 31 32 33 34 34 35 36 37 37 37 37 37 37 37 37 38 38 38 39 40 41 42 42 42 43 44 45 46
25 25 26 27 27 27 29 29 29 30 30 31 31 32 32 33 35 36 36 37 37 38 38 38 38 38 37 37 37 38 38 39 39 40 41 42 42 43 44 44 45 46 47
26 27 27 28 28 29 29 30 31 31 31 32 32 33 34 35 36 37 38 39 38 38 38 38 38 38 38 38 38 39 40 41 42 42 43 43 44 45 46 46 47 48 48
28 28 28 29 29 30 31 31 31 32 32 32 33 34 34 35 37 38 38 38 38 38 38 38 38 39 38 39 39 40 41 42 42 43 44 44 45 46 47 48 48 49 48
29 29 29 30 31 31 32 32 32 32 32 33 34 34 35 36 37 37 37 37 37 37 38 38 39 39 39 40 40 41 42 42 43 44 45 45 46 46 47 48 48 48 47
29 29 30 30 31 32 32 32 33 34 34 34 35 35 36 36 37 37 38 38 38 38 39 39 39 39 40 40 41 41 42 43 44 44 44 45 46 46 47 47 46 46 45
29 30 30 31 32 32 32 33 33 33 34 34 34 35 35 36 37 38 38 38 38 38 39 39 39 39 40 41 41 42 42 43 43 44 44 45 45 45 45 44 44 43 43
30 31 31 32 33 33 32 33 33 33 34 35 35 35 36 36 37 38 38 38 38 39 39 39 40 40 41 41 42 42 42 43 43 43 44 43 43 43 42 42 42 42 42
31 31 32 32 33 33 32 32 33 33 34 35 35 36 36 37 37 38 38 39 39 39 40 40 40 41 42 42 42 42 41 41 42 42 42 42 42 41 41 40 41 41 41
31 32 32 32 32 32 33 33 33 34 35 35 36 37 37 37 37 38 39 39 40 40 41 41 41 41 42 41 41 41 41 40 41 41 41 41 40 40 40 40 40 40 39
32 31 32 32 32 33 33 34 34 35 35 36 37 37 38 38 38 38 39 40 40 41 41 40 40 40 40 39 39 39 39 40 40 41 40 40 39 39 40 40 40 39 38
Wind_Direction
260 260 261 264 266 269 274 276 277 278 281 282 282 285 286 287 290 292 292 293 295 295 295 295 296 296 297 298 299 300 301 301 300 301 301 301 302 302 303 303 302 301 301
258 258 261 265 267 270 273 274 275 278 280 280 281 282 284 286 289 291 293 292 293 293 293 293 295 295 297 298 298 299 300 300 299 299 299 299 299 300 300 300 299 299 298
262 264 265 267 269 270 272 274 276 278 279 279 280 282 284 286 288 290 292 292 293 293 293 293 293 294 294 296 297 298 298 298 299 299 300 298 298 298 298 298 297 297 297
263 265 266 268 271 273 274 275 278 278 279 280 281 282 283 285 287 289 292 293 293 294 293 293 294 295 294 295 296 297 297 297 298 298 299 298 297 297 297 297 296 296 295
262 264 267 267 270 273 274 276 278 277 277 279 281 283 284 285 286 288 290 291 291 292 292 292 293 294 294 295 296 296 297 297 296 296 297 297 297 297 296 296 296 295 295
261 263 267 267 270 274 275 277 279 278 278 279 281 282 284 285 285 286 290 291 291 291 291 291 292 292 293 294 294 295 296 296 297 297 297 296 296 296 296 296 296 295 295
264 266 267 267 271 274 277 279 280 280 280 280 281 282 284 285 285 286 288 290 290 289 290 291 292 292 293 293 294 295 296 296 296 296 297 296 296 296 296 296 296 296 296
267 266 267 270 272 275 277 279 278 279 280 280 281 283 284 285 286 286 288 290 290 289 290 291 292 292 293 294 296 296 296 296 296 296 295 295 296 296 297 297 296 296 296
268 268 268 273 275 276 277 278 277 278 280 280 282 284 286 287 288 288 289 290 290 290 290 291 292 294 294 294 294 294 295 295 295 295 296 296 296 296 296 296 297 296 296
271 269 271 274 277 279 280 279 279 281 282 283 285 287 288 289 289 290 291 291 292 292 292 292 293 294 294 294 294 294 295 295 295 295 295 296 297 297 297 297 297 297 296
271 271 273 276 278 279 280 280 280 282 284 286 286 288 290 290 290 291 292 292 291 292 293 294 294 294 294 294 295 295 295 295 296 296 296 296 297 297 298 298 298 298 297
272 274 275 276 278 279 281 281 282 282 284 286 287 289 291 291 290 290 292 292 291 292 293 294 294 294 294 294 294 295 295 296 296 297 297 297 297 297 297 298 298 298 298
274 276 277 277 279 280 281 283 284 285 285 286 287 288 290 291 291 291 291 292 292 292 293 293 294 295 295 294 293 293 294 295 296 297 297 297 297 297 298 298 298 299 299
275 275 276 278 279 280 282 282 284 286 286 287 287 287 288 289 290 291 291 292 293 293 294 294 294 294 294 294 293 293 294 294 295 296 296 297 298 298 298 299 299 299 300
275 276 277 278 279 280 281 283 284 286 287 288 288 288 289 290 291 292 292 292 292 293 293 294 293 293 293 293 294 295 295 296 296 297 298 299 299 299 299 299 300 300 301
276 278 279 279 281 282 283 283 284 286 288 288 289 289 290 291 291 292 292 293 293 294 294 294 294 293 293 294 295 295 296 296 297 297 298 299 299 300 300 300 301 302 302
276 279 280 281 282 284 285 285 285 287 288 289 289 290 290 291 291 292 293 294 294 294 295 295 295 294 294 294 294 295 296 297 297 298 299 299 300 300 301 301 301 302 301
278 280 280 282 282 284 286 286 286 288 289 289 290 292 293 293 294 295 295 295 295 295 295 296 295 295 295 294 295 295 296 297 297 298 299 300 300 301 301 301 302 302 301
280 281 282 283 283 285 287 287 287 287 288 289 291 292 294 295 295 296 297 297 297 297 297 297 296 295 295 295 295 296 296 297 298 298 299 300 301 301 301 301 301 302 301
280 281 282 283 285 286 287 287 287 287 289 290 291 293 294 296 296 297 297 298 298 298 298 298 298 297 297 297 297 297 298 298 299 299 300 301 301 301 301 301 301 301 301
281 282 283 284 285 286 287 288 288 289 290 291 292 293 295 296 297 299 299 298 298 299 299 299 299 299 298 298 298 299 299 300 301 302 302 302 302 302 302 302 302 302 301
284 284 285 285 287 288 288 289 291 292 291 291 293 294 295 296 297 298 298 298 298 298 299 299 299 299 299 299 299 300 301 301 302 303 303 303 303 303 303 303 304 303 302
285 286 286 287 288 289 289 290 291 292 292 292 293 294 295 296 297 299 299 298 298 299 299 299 299 300 300 300 299 300 301 301 302 303 304 304 304 304 304 304 304 304 303
285 286 286 287 288 288 289 290 291 293 294 294 295 296 297 297 298 299 299 300 299 299 300 300 300 300 301 301 301 300 301 302 304 305 305 305 305 305 304 304 304 304 304
285 285 286 287 288 288 289 290 291 293 294 295 296 297 298 297 297 298 299 300 301 301 301 301 300 300 300 301 302 302 302 303 305 306 306 306 307 307 306 305 305 305 305
284 284 285 287 288 289 289 290 292 294 295 296 297 297 298 298 298 298 300 301 302 302 302 302 301 301 302 303 304 304 305 305 306 307 307 308 308 309 308 307 307 307 307
Height
5850 5851 5851 5852 5852 5853 5853 5853 5853 5853 5853 5853 5852 5852 5852 5851 5851 5850 5849 5848 5848 5847 5846 5845 5844 5843 5842 5841 5839 5838 5837 5835 5834 5833 5831 5830 5828 5826 5825 5823 5822 5820 5818
5847 5847 5848 5849 5849 5849 5850 5850 5850 5849 5849 5849 5849 5848 5848 5848 5847 5846 5846 5845 5844 5843 5842 5841 5840 5839 5838 5836 5835 5834 5832 5831 5830 5828 5827 5825 5823 5822 5820 5818 5817 5815 5813
5843 5844 5845 5845 5845 5846 5846 5846 5846 5846 5846 5845 5845 5845 5844 5844 5843 5842 5842 5841 5840 5839 5838 5837 5836 5834 5833 5832 5831 5829 5828 5826 5825 5823 5821 5820 5818 5816 5814 5813 5811 5809 5807
5840 5840 5841 5841 5842 5842 5842 5842 5842 5842 5841 5841 5841 5841 5840 5840 5839 5838 5837 5836 5835 5834 5833 5832 5831 5830 5828 5827 5826 5824 5822 5821 5819 5817 5816 5814 5812 5810 5808 5807 5805 5803 5801
5836 5837 5837 5837 5838 5838 5838 5838 5838 5837 5837 5837 5836 5836 5836 5835 5834 5833 5832 5831 5830 5829 5828 5827 5826 5824 5823 5822 5820 5818 5817 5815 5813 5811 5810 5808 5806 5804 5802 5800 5798 5796 5794
5832 5832 5833 5833 5833 5834 5834 5833 5833 5833 5832 5832 5832 5831 5831 5830 5829 5828 5827 5827 5825 5824 5823 5822 5820 5819 5817 5816 5814 5812 5810 5808 5807 5805 5803 5801 5799 5796 5794 5792 5790 5788 5786
5828 5828 5828 5828 5829 5829 5829 5829 5828 5828 5828 5827 5827 5826 5826 5825 5824 5823 5822 5821 5820 5819 5817 5816 5814 5813 5811 5809 5807 5805 5803 5801 5799 5797 5795 5793 5791 5789 5786 5784 5782 5780 5777
5823 5823 5824 5824 5824 5824 5824 5824 5823 5823 5823 5822 5822 5821 5820 5819 5818 5817 5816 5815 5814 5812 5811 5810 5808 5806 5804 5802 5800 5798 5796 5794 5791 5789 5787 5784 5782 5779 5777 5775 5772 5770 5768
5818 5819 5819 5819 5819 5819 5819 5818 5818 5818 5817 5817 5816 5816 5815 5814 5813 5811 5810 5809 5808 5806 5804 5803 5801 5799 5797 5795 5793 5791 5788 5786 5783 5780 5778 5775 5772 5770 5767 5765 5762 5759 5757
5814 5814 5814 5814 5814 5814 5814 5813 5813 5813 5812 5812 5811 5810 5809 5808 5807 5805 5804 5803 5801 5800 5798 5796 5793 5791 5789 5786 5784 5782 5780 5777 5774 5772 5769 5766 5763 5760 5757 5754 5751 5748 5745
5809 5809 5809 5809 5809 5809 5808 5808 5808 5807 5807 5806 5805 5804 5803 5802 5800 5799 5797 5795 5794 5792 5790 5788 5785 5783 5780 5778 5775 5773 5770 5767 5765 5762 5759 5756 5753 5750 5746 5743 5739 5736 5733
5804 5804 5804 5804 5804 5803 5803 5802 5802 5801 5801 5800 5799 5798 5796 5795 5793 5791 5789 5787 5786 5784 5782 5779 5776 5774 5771 5768 5765 5763 5760 5757 5755 5752 5749 5746 5743 5740 5736 5732 5728 5724 5720
5798 5798 5798 5798 5798 5797 5797 5796 5795 5795 5794 5793 5792 5791 5789 5787 5786 5783 5781 5779 5777 5775 5773 5770 5767 5764 5761 5758 5755 5753 5750 5747 5744 5741 5738 5735 5732 5728 5725 5721 5717 5712 5708
5792 5792 5792 5792 5791 5791 5790 5790 5789 5788 5787 5786 5785 5783 5782 5780 5778 5775 5773 5770 5768 5765 5763 5760 5757 5754 5751 5748 5745 5742 5739 5736 5733 5730 5726 5723 5720 5716 5712 5708 5704 5700 5696
5785 5785 5785 5785 5784 5784 5783 5782 5781 5780 5779 5778 5776 5775 5773 5771 5769 5766 5764 5761 5758 5756 5753 5750 5747 5744 5741 5738 5735 5731 5728 5725 5721 5718 5714 5711 5707 5704 5700 5696 5691 5687 5682
5778 5778 5778 5777 5777 5776 5775 5774 5773 5772 5771 5769 5767 5765 5763 5761 5759 5756 5753 5751 5748 5745 5742 5739 5736 5733 5729 5726 5723 5720 5716 5713 5709 5706 5702 5699 5695 5691 5687 5683 5678 5673 5668
5771 5770 5770 5769 5768 5767 5766 5765 5764 5763 5761 5760 5758 5756 5753 5751 5749 5746 5743 5740 5737 5733 5730 5727 5724 5721 5718 5714 5711 5708 5705 5701 5698 5694 5690 5686 5682 5678 5674 5669 5665 5660 5654
5763 5762 5761 5761 5760 5759 5757 5756 5755 5753 5752 5750 5748 5745 5743 5740 5738 5735 5731 5728 5725 5722 5718 5715 5712 5709 5706 5702 5699 5696 5693 5689 5685 5682 5678 5673 5669 5665 5660 5655 5650 5645 5640
5754 5754 5753 5752 5751 5749 5748 5746 5745 5743 5742 5740 5738 5735 5732 5729 5726 5723 5720 5717 5713 5710 5707 5703 5700 5697 5693 5690 5687 5683 5680 5676 5672 5668 5664 5660 5655 5651 5646 5641 5636 5631 5626
5746 5745 5744 5743 5741 5740 5738 5736 5735 5733 5731 5729 5727 5724 5722 5719 5716 5712 5709 5706 5702 5699 5695 5692 5688 5684 5681 5678 5674 5671 5667 5663 5659 5655 5651 5646 5641 5636 5631 5626 5621 5616 5611
5737 5736 5734 5733 5732 5730 5728 5727 5725 5723 5721 5719 5716 5714 5711 5708 5705 5702 5698 5695 5691 5688 5684 5680 5677 5673 5669 5666 5662 5658 5654 5650 5646 5641 5637 5632 5627 5623 5617 5612 5607 5602 5598
5727 5726 5725 5724 5722 5721 5719 5717 5714 5712 5710 5708 5706 5703 5700 5697 5694 5691 5687 5684 5680 5677 5673 5669 5665 5661 5657 5653 5649 5645 5641 5637 5633 5628 5624 5619 5614 5609 5604 5599 5594 5589 5585
5718 5717 5716 5714 5713 5711 5709 5707 5704 5702 5699 5697 5695 5692 5690 5687 5683 5680 5676 5672 5669 5665 5661 5657 5653 5650 5646 5641 5637 5633 5629 5624 5620 5615 5611 5606 5601 5596 5592 5587 5582 5577 5573
5709 5708 5706 5705 5703 5701 5699 5697 5695 5692 5689 5687 5684 5681 5679 5676 5672 5669 5665 5661 5658 5654 5650 5646 5642 5638 5634 5629 5625 5621 5616 5612 5608 5603 5598 5594 5589 5584 5580 5575 5570 5566 5561
5700 5698 5697 5695 5693 5691 5689 5687 5685 5682 5680 5677 5674 5671 5668 5665 5661 5658 5654 5651 5647 5642 5638 5634 5630 5626 5622 5618 5613 5609 5605 5600 5595 5591 5586 5582 5577 5573 5568 5563 5559 5554 5550
5690 5688 5687 5685 5683 5681 5679 5677 5675 5672 5669 5666 5663 5660 5657 5654 5651 5647 5643 5639 5635 5631 5627 5623 5619 5615 5610 5606 5602 5598 5593 5589 5584 5580 5575 5571 5566 5562 5557 5552 5548 5543 5539